Regional Weather Roundup
Issued by NWS

Home | Current Version | Previous Version | Text Only | Print | Product List | Glossary Off
Versions: 1 2 3 4 5 6 7 8 9 10 11 12 13 14 15 16 17 18 19 20 21 22 23 24 25 26 27 28 29 30 31 32 33 34 35 36 37 38 39 40 41 42 43 44 45 46 47 48 49 50

000
ASUS45 KTFX 301504
RWRMT
MONTANA HOURLY WEATHER ROUNDUP
NATIONAL WEATHER SERVICE GREAT FALLS MT
904 AM MDT THU OCT 30 2014

NOTE: "FAIR" INDICATES FEW OR NO CLOUDS BELOW 12000 FEET WITH NO
SIGNIFICANT WEATHER AND/OR OBSTRUCTIONS TO VISIBILITY.

* THESE STATIONS ARE NOT UNDER NWS QUALITY CONTROL. THEY DO NOT
   REPORT WEATHER SUCH AS PRECIPITATION OR FOG.

MTZ001>007-043-301600-
WEST OF THE DIVIDE
CITY           SKY/WX    TMP DP  RH WIND       PRES   REMARKS
KALISPELL      FOG       41  39  93 CALM      30.25S VSB M1/4
MISSOULA       FOG       37  37 100 CALM      30.26S VSB 3
BUTTE          CLOUDY    34  30  85 CALM      30.29R
MULLAN PASS    FOG       34  34 100 SE12G20   30.19R VSB M1/4 WCI  25
* DEER LODGE   PTSUNNY   36  32  85 N/A        N/A
* ESSEX        N/A       38  37  96 SE2        N/A
* HAMILTON APT PTSUNNY   37  36  96 NW2        N/A
* LIBBY APT    PTSUNNY   43  39  86 N/A        N/A
* LINCOLN      N/A       29  28  96 N/A        N/A
* LOOKOUT PASS N/A       38  38 100 S6G11      N/A   WCI  33
* POLSON       N/A       41  41 100 N1         N/A
* RONAN APT    CLOUDY    34  32  92 N/A        N/A
* SEELEY LAKE  N/A       31  30  96 N/A        N/A
* THOMP F APT  PTSUNNY   37  26  64 N2         N/A
* YAAK HILL    N/A       41  39  93 E1         N/A
$$

MTZ008-052>055-301600-
SOUTHWEST MONTANA
CITY           SKY/WX    TMP DP  RH WIND       PRES   REMARKS
BOZEMAN        CLOUDY    34  30  85 CALM      30.30R
DILLON         CLOUDY    37  28  70 S3        30.28S
W YELLOWSTONE  CLOUDY    28  27  96 CALM      30.36S
* ENNIS APT    PTSUNNY   39  28  65 N/A        N/A
* THREE FORKS  PTSUNNY   32  32 100 N/A        N/A
* BOULDER HILL N/A       35  25  67 SW6        N/A   WCI  30
* RAYNOLDS PAS N/A       35  17  48 SE9G14     N/A   WCI  28
* WHITEHALL    N/A       34  29  82 SW1        N/A
* WISE RIVER   N/A       31  29  92 W2         N/A
$$

MTZ009>010-012-014-046-048-049-054-301600-
EAST SLOPES AND CENTRAL MONTANA
CITY           SKY/WX    TMP DP  RH WIND       PRES   REMARKS
CUT BANK       SUNNY     32  28  85 CALM      30.24R
GREAT FALLS    PTCLDY    34  30  85 E3        30.25R
HELENA         PTSUNNY   39  34  82 CALM      30.28R
MALMSTROM AFB  SUNNY     32  30  92 SE5       30.27R WCI  27
* CONRAD       SUNNY     21  19  92 N/A        N/A
* DEARBORN     N/A       32  31  96 S2         N/A
* EAST GLACIER N/A       36  31  82 NW6        N/A   WCI  31
* MONARCH      N/A       31  25  78 SE3        N/A
* SAINT MARY   N/A       30  25  82 SE4        N/A
* SWEET GRASS  N/A       38  30  73 S7         N/A   WCI  33
$$

MTZ011-013-016-021-035-040-045-047-050-051-301600-
NORTH CENTRAL MONTANA
CITY           SKY/WX    TMP DP  RH WIND       PRES   REMARKS
HAVRE          FOG       28  27  96 E12       30.29R VSB 1    WCI  18
LEWISTOWN      SUNNY     37  28  70 S13       30.29R WCI  29
* N BAR RANCH  SUNNY     36  28  73 W3        30.31R
* CHESTER      N/A       26  23  88 E2         N/A
* DENTON       N/A       36  30  79 S17        N/A   WCI  26
* GEYSER       N/A       34  30  85 S9         N/A   WCI  27
* JUDITH GAP   N/A       33  26  75 S5         N/A   WCI  28
* LOMA         N/A       33  29  85 N/A        N/A
$$

MTZ017>020-022>027-061-062-301600-
NORTHEAST MONTANA
CITY           SKY/WX    TMP DP  RH WIND       PRES   REMARKS
GLASGOW        CLOUDY    36  30  79 E6        30.35R WCI  31
GLENDIVE       CLOUDY    36  32  85 NE5       30.36R WCI  32
JORDAN         SUNNY     34  34 100 E10       30.32R WCI  26
SIDNEY         CLOUDY    36  30  79 NW6       30.38R WCI  31
WOLF POINT     CLOUDY    37  30  76 N6        30.37R WCI  32
* BEAVER HILL  N/A       34  32  92 VRB1G8     N/A
* CIRCLE       N/A       32  31  96 N/A        N/A
* LINDSAY DVD  N/A       33  32  96 N4         N/A
* NAVAJO       N/A       31  30  96 N7         N/A   WCI  24
* PLENTYWOOD A N/A       28 N/A N/A N/A        N/A
* POPLAR APT   N/A       36  30  79 N/A        N/A
* SACO         N/A       34  31  89 NE4G9      N/A
$$

MTZ028>042-056>058-301600-
SOUTHCENTRAL AND SOUTHEAST MONTANA
CITY           SKY/WX    TMP DP  RH WIND       PRES   REMARKS
BAKER          FOG       34  32  92 NE8       30.34R WCI  27
BILLINGS       PTCLDY    37  27  67 SW16      30.31R WCI  28
LIVINGSTON     PTSUNNY   37  28  70 CALM      30.30R
MILES CITY     SUNNY     32  28  85 NE9       30.32R WCI  24
* FORSYTH APT  SUNNY     37  30  76 N/A        N/A
* LAUREL APT   PTCLDY    32  21  64 SW6        N/A   WCI  26
* ROUNDUP APT  SUNNY     34  27  76 N/A        N/A
* ALZADA       N/A       38  30  73 W3         N/A
* HYSHAM       N/A       41  30  65 W6         N/A
* LAME DEER    N/A       42  30  63 W7         N/A
* REED POINT   N/A       29  28  96 E1         N/A
* ROSCOE HILL  N/A       42  23  47 E6         N/A
$$

REGIONAL REPORTS...DAKOTAS
CITY           SKY/WX    TMP DP  RH WIND       PRES   REMARKS
WILLISTON      CLOUDY    36  30  79 N8        30.35R WCI  30
DICKINSON      FOG       36  34  92 N10       30.30R WCI  29
BEACH          N/A       34  34 100 NW8       30.34R WCI  27
CROSBY         CLOUDY    34  34 100 N9        30.37R WCI  27
TIOGA          FOG       34  34 100 NE8       30.36R WCI  27
BISMARCK       SUNNY     34  28  79 N7        30.32R WCI  28
GRAND FORKS    CLOUDY    36  32  85 N13       30.23R WCI  27
FARGO          CLOUDY    39  36  89 N17       30.18R WCI  30
BUFFALO SD     SUNNY     34  32  92 N10       30.25R WCI  26
RAPID CITY     SUNNY     48  34  59 CALM      30.28R
$$

REGIONAL REPORTS...WYOMING/IDAHO/WASHINGTON
CITY           SKY/WX    TMP DP  RH WIND       PRES   REMARKS
GILLETTE       SUNNY     45  28  51 W9        30.33R
SHERIDAN       SUNNY     37  27  67 S5        30.33R WCI  33
CODY           PTCLDY    39  28  65 S5        30.32R WCI  35
SALMON         CLOUDY    37  36  96 CALM      30.28R
MULLAN PASS    FOG       34  34 100 SE12G20   30.19S VSB M1/4 WCI  25
SAND POINT     CLOUDY    43  43 100 NE9       30.17F
SPOKANE        CLOUDY    46  45  96 NE8       30.11F
$$

REGIONAL REPORTS...ALBERTA
CITY           SKY/WX    TMP DP  RH WIND       PRES   REMARKS
CALGARY        FOG       27  25  92 S9        30.20S VSB M1/4 WCI  18
MEDICINE HAT   FOG       32  32 100 NE8       30.29R VSB 1/2  WCI  25

$$




USA.gov is the U.S. government's official web portal to all federal, state and local government web resources and services.